www.pogodaiklimat.ru

Погода и климат >> Архив погоды >> Россия >> Забайкальский край >> Агинское


АРХИВ ПОГОДЫ в Агинском

Время (UTC), дата Ветер
(напр.,м/с)
 
Видим.   Явления Облачность Т
(С)
Тd
(С)
f
(%)
Тe
(С)
Тes
(С)
Комфортность P
(гПа)
Po
(гПа)
Тmin
(С)
Tmax
(С)
R
(мм)
R24
(мм)
S
(см)
09 12.07 С 2 50 км 8/3 600 м
[Cb cap Ci ing]
+27.8 +11.6 37 +29 +32 жарко 1002.4 928.7
12 12.07 С 1 50 км 5/1 1000 м
[Sc diur, vesp Ci fib]
+27.1 +13.9 44 +29 +29 жарко 1002.6 928.8 +30.2
15 12.07 З 2 50 км 10/0
[Ci fib]
+18.6 +16.1 85 +20 +20 1005.9 929.8
18 12.07 ЮЗ 2 50 км 10/0
[Ci fib]
+14.8 +13.4 91 +14 +14 1007.3 930.1
21 12.07 ЮЗ 1 50 км 3/0
[Ac As Ci fib]
+13.1 +11.9 92 +13 +13 1008.1 930.3
00 13.07 ЮЗ 1 50 км ясно +19.6 +14.7 73 +23 +30 комфорт 1006.2 930.3 +12.8
03 13.07 ЮЗ 1 50 км 1/0
[Ci fib]
+28.5 +17.5 51 +33 +50 очень
душно
1002.8 929.4
06 13.07 СЗ 2 50 км 10/1 1000 м
[Cu med, cong Cs]
+31.3 +11.3 29 +31 +42 жарко 999.7 927.0
09 13.07 СВ 3
{14}
20 км гроза, ливневой дождь 10/10 600 м
[Cb cap]
+24.0 +12.4 48 +26 +26 жарко 1002.5 927.9
12 13.07 ЮЗ 1 50 км {гроза, ливн. осадки} 3/0
[Ac trans Ci ing]
+20.8 +16.0 74 +25 +25 комфорт 1003.5 928.2 +31.9 0.3
15 13.07 З 2 50 км ясно +16.6 +14.3 86 +17 +17 1005.2 928.6
18 13.07 ЮЗ 1 50 км ясно +13.2 +11.7 91 +13 +13 1006.5 928.9
21 13.07 ЮЗ 1 50 км 3/0
[Ci fib]
+11.4 +10.6 95 +11 +11 1007.5 929.3
00 14.07 ЮЗ 2 50 км 1/0
[Ac cast]
+18.6 +14.8 79 +20 +26 1005.6 929.5 +11.2
03 14.07 ЮВ 1 50 км 8/4 1000 м
[Sc Ac trans Ci fib]
+24.3 +12.7 48 +26 +33 жарко 1003.7 929.1
06 14.07 З 2 50 км 3/3 1000 м
[Cu Sc]
+27.1 +9.7 34 +28 +38 жарко 1001.4 927.6
09 14.07 ЮЗ 1 50 км 4/4 1000 м
[Cu Sc]
+28.2 +11.2 35 +29 +33 жарко 999.3 925.9
12 14.07 В 3 50 км 8/1 1000 м
[Sc diur, vesp Ci fib]
+24.7 +12.9 48 +27 +27 жарко 1000.8 926.5 +29.4
15 14.07 СЗ 1 50 км 3/0
[Ci fib]
+16.2 +13.1 82 +17 +17 1004.0 927.4
18 14.07 З 1 50 км зарница 8/6 600 м
[Cb cap Ci fib]
+14.0 +11.6 85 +14 +14 1004.7 927.4
21 14.07 В 1 50 км 8/8 600 м
[Cb cap Ci fib]
+14.5 +12.0 85 +15 +15 1004.9 927.7
00 15.07 В 6 50 км 6/3 1000 м
[Cu Sc Ac trans Ci sp]
+20.0 +10.5 54 +21 +22 комфорт 1003.7 928.0 +12.5
03 15.07 В 5 50 км 6/0
[Ac trans Ci fib]
+25.0 +11.5 43 +26 +33 жарко 1002.3 928.0
06 15.07 В 4 50 км 4/3 1000 м
[Cu hum Ci fib]
+27.8 +10.8 35 +29 +35 жарко 1001.3 927.7
09 15.07 В 3 50 км 10/1 1000 м
[Cu hum Ci fib]
+27.9 +11.9 37 +29 +32 жарко 1000.7 927.2
12 15.07 В 3 50 км 9/4 1000 м
[Sc Ac trans]
+25.2 +11.8 43 +27 +27 жарко 1002.9 928.6 +28.4
15 15.07 В 1 50 км 6/0
[Ac trans]
+19.4 +12.3 63 +22 +22 комфорт 1005.8 929.8
18 15.07 ЮЗ 2 50 км 3/0
[Ci fib]
+11.9 +9.9 88 +11 +11 1008.2 930.1
21 15.07 З 2 50 км 3/0
[Ac lent]
+11.2 +9.0 86 +10 +10 1009.6 931.2
00 16.07 В 2 50 км 1/0
[Ac lent]
+19.8 +11.7 60 +22 +28 комфорт 1007.4 931.4 +10.2
03 16.07 В 5 50 км 1/0
[Ac trans]
+25.9 +9.0 34 +26 +34 жарко 1005.7 931.2
06 16.07 В 2 50 км 6/1 1000 м
[Cu hum Ac cast Ci fib]
+28.4 +8.8 29 +28 +38 жарко 1004.1 930.3
09 16.07 В 4 50 км 3/1 1000 м
[Cu hum Ac trans Ci fib]
+28.8 +8.6 28 +28 +31 жарко 1002.8 929.2
12 16.07 В 2 50 км 1/1 1000 м
[Cu med, cong]
+25.9 +9.9 36 +27 +27 жарко 1004.3 930.0 +29.3
15 16.07 З 2 50 км ясно +15.5 +11.1 75 +15 +15 1008.5 931.3
18 16.07 З 2 50 км ясно +11.8 +9.5 86 +11 +11 1009.5 931.3
21 16.07 З 2 50 км 1/0
[Ac lent Ci fib]
+9.7 +8.5 92 +8 +8 1010.3 931.4
00 17.07 Ю 1 50 км 1/0
[Ci fib]
+19.0 +11.9 63 +21 +28 комфорт 1007.8 931.6 +9.6
03 17.07 С 2 50 км 1/0
[Ci fib]
+28.7 +9.8 31 +29 +44 жарко 1004.6 930.9
06 17.07 ЮВ 3 50 км 8/1 1000 м
[Cu med, cong Ci fib]
+30.6 +9.8 28 +30 +40 жарко 1002.0 928.9
09 17.07 ЮЗ 5 50 км 10/1 1000 м
[Cu med, cong Cs]
+28.2 +14.3 43 +30 +32 жарко 1001.7 928.2
12 17.07 З 2 50 км 10/3 1000 м
[Sc Cs]
+23.5 +16.0 63 +27 +27 душно 1003.6 928.9 +31.5
15 17.07 СЗ 1 50 км 10/1 1000 м
[Sc Cs]
+18.7 +15.7 83 +21 +21 комфорт 1005.2 929.2
18 17.07 З 1 50 км 10/3 1000 м
[Sc Cs]
+16.2 +14.4 89 +17 +17 1005.8 929.1
21 17.07 штиль 0 50 км 10/8 1000 м
[Sc Ci fib]
+16.7 +14.5 87 +17 +17 1005.4 928.8
00 18.07 В 1 50 км 10/0
[Ac trans Ci fib]
+20.8 +15.0 69 +25 +28 комфорт 1004.0 928.6 +15.6
03 18.07 В 1 50 км 9/3 1000 м
[Cu med, cong Ac und]
+27.6 +15.3 47 +30 +35 жарко 1001.9 928.3
06 18.07 Ю 4 50 км гроза без осадков 10/10 600 м
[Cb cap]
+29.0 +13.9 40 +31 +31 жарко 999.6 926.5
09 18.07 ЮВ 2 50 км {гроза, ливн. осадки} 10/4 600 м
[Cb cap Ac cuf Ci fib]
+29.7 +13.8 38 +31 +33 жарко 997.9 925.0
12 18.07 З 2 50 км {гроза, ливн. осадки} 10/5 600 м
[Cb cap Ci ing]
+25.7 +16.6 57 +29 +29 душно 999.2 925.4 +30.6 0.0
15 18.07 СЗ 1 50 км зарница 10/3 600 м
[Cb cap Ci ing]
+20.1 +16.0 77 +24 +24 комфорт 1000.7 925.4
18 18.07 ЮЗ 2 50 км 8/0
[Ac trans Ci ing]
+16.2 +14.5 90 +16 +16 1000.8 924.5
21 18.07 ЮЗ 1 50 км 10/0
[Ac lent Ci fib]
+15.9 +14.3 90 +17 +17 1001.0 924.5
00 19.07 З 1 50 км 10/0
[Ac trans Cc]
+20.8 +16.5 76 +25 +30 комфорт 999.4 924.4 +15.7
03 19.07 Ю 1 50 км 10/5 600 м
[Cb cap Ac trans Ci fib]
+25.4 +17.8 63 +30 +34 душно 997.2 923.5
06 19.07 СВ 4 20 км гроза, ливневой дождь 10/10 600 м
[Cb cap]
+22.9 +18.4 76 +29 +29 очень
душно
997.6 923.3

 

Местоположение метеостанции Агинское (Забайкальский край, Россия): широта 51.10 долгота 114.50 высота над уровнем моря 681 м.

В архиве по умолчанию представлена погода в Агинском за последнюю неделю. Архивные данные за месяц целиком и за предыдущие месяцы, начиная с января 2011 года, Вы можете получить, выбрав интересующий диапазон дат из раскрывающегося списка и нажав кнопку "Ввод!".


*Определитесь, кто Вы:
робот инопланетянин человек

Внимание! Время в таблицах - всемирное. Для получения местного времени необходимо прибавить поправку, которая равна 9 ч.

Смотрите также архив погоды в соседних городах и на ближайших метеорологических станциях:

Погода в Могойтуе (Забайкальский край, Россия) (38 км)
Погода в Курорт-Дарасуне (Забайкальский край, Россия) (57 км)
Погода в Карымской (Забайкальский край, Россия) (61 км)
Погода в Оловянной (Забайкальский край, Россия) (72 км)
Погода в Нижнем Цасучее (Забайкальский край, Россия) (78 км)
Погода в Дульдурге (Забайкальский край, Россия) (84 км)
Погода в Бырке (Забайкальский край, Россия) (111 км)
Погода в Акше (Забайкальский край, Россия) (130 км)
Погода в Чите (Забайкальский край, Россия) (133 км)
Погода в Шилке (Забайкальский край, Россия) (135 км)

Пояснения к столбцам:

Ветер - указаны скорость ветра в м/с - средняя за 10 мин, порывы в срок и между сроками (в фигурных скобках) и направление, откуда дует ветер: С - северный, СВ - северо-восточный, В - восточный, ЮВ - юго-восточный, Ю - южный, ЮЗ - юго-западный, З - западный, СЗ - северо-западный.
Видимость - горизонтальная дальность видимости в метрах или километрах. При видимости от 1 до 10 км при отсутствии осадков обычно наблюдается дымка, при ухудшении видимости до 1 км и менее - туман. В сухую погоду видимость может ухудшаться дымом, пылью или мглою.
Явления - указаны атмосферные явления, наблюдавшиеся в срок или в последний час перед сроком; фигурными скобками обозначены явления, наблюдавшиеся между сроками (за 1-3 часа до срока); квадратными скобками обозначены град или гололедные отложения с указанием их диаметра в мм.
Облачность - указаны через наклонную черту общая и нижняя облачность в баллах и высота нижней границы облаков в метрах; квадратными скобками обозначены формы облаков: Ci - перистые, Cs - перисто-слоистые, Cc - перисто-кучевые, Ac - высококучевые, As - высокослоистые, Sc - слоисто-кучевые, Ns - слоисто-дождевые, Cu - кучевые, Cb - кучево-дождевые. Подробнее классификацию облаков см. в Атласе облаков (PDF).
T - Температура воздуха - температура, измеренная на высоте 2 м над землей.
Td - Температура точки росы - температура, при понижении до которой содержащийся в воздухе водяной пар достигнет насыщения.
f - Относительная влажность воздуха - влажноcть воздуха, измеренная на высоте 2 м над землей.
Te - Эффективная температура - температура, которую ощущает одетый по сезону человек в тени. Характеристика душности погоды. При расчете учитывается влияние влажности воздуха и скорости ветра на теплоощущения человека.
Tes - Эффективная температура на солнце - температура, которую ощущает человек, с поправкой на солнечный нагрев. Характеристика знойности погоды. Зависит от высоты солнца над горизонтом, облачности и скорости ветра. Ночью, в пасмурную погоду, а также при ветре 12 м/с и более поправка равна нулю.
P - Атмосферное давление - приведенное к уровню моря атмосферное давление.
Po - Атмосферное давление - измеренное на уровне метеостанции атмосферное давление.
Tmin - Минимальная температура - минимум температуры воздуха на высоте 2 м над землей.
Tmax - Максимальная температура - максимум температуры воздуха на высоте 2 м над землей.
R - Количество осадков - Количество выпавших осадков за период времени, мм. При наведении курсора мыши на число - период времени, за который выпало указанное количество осадков.
R24 - Количество осадков - Количество выпавших осадков за 24 часа, мм.
S - Снежный покров - Высота снежного покрова, см. При наведении курсора мыши на число - состояние снежного покрова и степень покрытия местности в баллах.